Content
SEND FEEDBACK

Daily
Averages
Monthly
Summary
Saudi Arabia

BURAYDAH, SAUDI ARABIA


Home > Middle East > Saudi Arabia
Elevation: 649 meters     Latitude: 26 18N     Longitude: 043 46E

WEATHER
 
SELECT A DAY
Number of Records: 177,204;   Date Range: 7/1/96 - 10/20/14
 
SHARE

PRINT THIS DATA

[ ← Previous Day ]
WEATHER ALMANAC - 31 JANUARY, 2013
[ Next Day → ]
[ °F ]   °C
Weather ElementAverageHighLow
Temperature16.3 °C19 °C (11:00 am)14 °C (12:00 am)
Dewpoint9.7 °C12.2 °C (9:00 am)7 °C (3:00 pm)
Humidity63.1 %77 % (8:00 am)40 % (3:00 pm)
Barometer1009.8 hPa1014.6 hPa (6:00 pm)1006.8 hPa (3:00 am)
Wind Speed18 km/h27.8 km/h (2:00 am)
Weather ElementAverage
Visibility8.4 km
Wind DirectionSSW (211.3 °)

Weather ElementTotal
Precipitation---
Heating Degree Days1.8 (Base 18.3)
Growing Degree Days6.5 (Base 10)
Averaged from 31 records on 31 January, 2013
WEATHER CONDITIONS BREAKOUT
WIND DIRECTION BREAKOUT
WEATHER BY HOUR - 31 JANUARY, 2013
[ °F ]   °C
Local TimeTemperatureDewpointHumidityBarometerVisibilityWind DirectionWind SpeedGust SpeedPrecipitationEventsConditions
12:00 AM14 °C9 °C72 %1010.2 hPa10 kmEast (100°)13 km/hPartly Cloudy
1:00 AM16 °C10 °C68 %1009.1 hPa5 kmSE (140°)20.4 km/hScattered Clouds
2:00 AM16 °C9 °C63 %1008.1 hPa5 kmSSE (150°)27.8 km/hScattered Clouds
3:00 AM15.6 °C8.9 °C55 %1006.8 hPa6.4 kmSSE (160°)27.8 km/hWidespread Dust
3:00 AM16 °C9 °C63 %1008.1 hPa6 kmSSE (160°)27.8 km/hScattered Clouds
4:00 AM16 °C9 °C63 %1008.1 hPa5 kmSouth (170°)24.1 km/hScattered Clouds
5:00 AM16 °C10 °C68 %1007.1 hPa4.5 kmSouth (190°)16.7 km/hScattered Clouds
6:00 AM16 °C10 °C68 %1008.1 hPa5 kmSouth (190°)16.7 km/hScattered Clouds
6:00 AM15.6 °C10 °C61 %1006.8 hPa4.8 kmSouth (190°)16.7 km/hWidespread Dust
7:00 AM16 °C11 °C72 %1009.1 hPa6 kmSSW (200°)11.1 km/hMostly Cloudy
8:00 AM16 °C12 °C77 %1010.2 hPa5 kmSW (220°)7.4 km/hMostly Cloudy
9:00 AM16.1 °C12.2 °C70 %1008.8 hPa9.7 kmWSW (250°)13 km/hMostly Cloudy
9:00 AM16 °C12 °C77 %1010.2 hPa10 kmWSW (250°)13 km/hMostly Cloudy
10:00 AM18 °C12 °C68 %1011.2 hPa10 kmWest (260°)16.7 km/hMostly Cloudy
11:00 AM19 °C11 °C60 %1011.2 hPa10 kmWSW (250°)18.5 km/hMostly Cloudy
12:00 PM19 °C11 °C60 %1011.2 hPa10 kmWNW (290°)27.8 km/hMostly Cloudy
12:00 PM18.9 °C11.1 °C50 %1009.1 hPa9.7 kmWNW (290°)27.8 km/hMostly Cloudy
1:00 PM18 °C9 °C56 %1010.2 hPa10 kmWest (270°)22.2 km/hMostly Cloudy
2:00 PM18 °C8 °C52 %1010.2 hPa10 kmWSW (240°)16.7 km/hMostly Cloudy
3:00 PM17.2 °C7.2 °C40 %1008.5 hPa9.7 kmWSW (240°)24.1 km/hMostly Cloudy
3:00 PM17 °C7 °C52 %1010.2 hPa10 kmWSW (240°)24.1 km/hMostly Cloudy
4:00 PM17 °C8 °C55 %1010.2 hPa10 kmWSW (240°)18.5 km/hMostly Cloudy
5:00 PM17 °C10 °C63 %1010.2 hPa10 kmSSW (210°)13 km/hScattered Clouds
6:00 PM16 °C10 °C68 %1010.2 hPa10 kmSSW (200°)13 km/hScattered Clouds
6:00 PM16.1 °C10 °C58 %1014.6 hPa9.7 kmSSW (200°)13 km/hPartly Cloudy
7:00 PM15 °C10 °C72 %1011.2 hPa10 kmSSW (200°)13 km/hMostly Cloudy
8:00 PM15 °C9 °C67 %1011.2 hPa10 kmSSW (200°)16.7 km/hPartly Cloudy
9:00 PM15 °C8.9 °C58 %1009.1 hPa9.7 kmSSW (200°)13 km/hScattered Clouds
9:00 PM15 °C9 °C67 %1011.2 hPa10 kmSSW (200°)13 km/hPartly Cloudy
10:00 PM15 °C9 °C67 %1012.2 hPa10 kmSSW (200°)18.5 km/hPartly Cloudy
11:00 PM14 °C8 °C67 %1012.2 hPa10 kmWSW (250°)13 km/hPartly Cloudy
Hourly data recorded from OEGS, located 0 kilometers away from Buraydah, Saudi Arabia







STORIES FROM OUR PARTNERS